[[{"header":{"parameterUnit":"m.s-1","parameterCategory":1,"la1":30.2991,"la2":30.254,"lo1":-89.0895,"lo2":-89.0444,"dy":0.0017,"dx":0.0017,"nx":28,"ny":28,"refTime":"2024-05-02T09:00:00:Z","depth":0,"parameterNumber":2,"parameterNumberName":"U-component_of_WINDS"},"data":[0,0,0,0,0,0,0,0,0,0,0,0,0,0,0,0,0,0,0,0,0,0,0,0,0,0,0,0,0,0,0,0,0,0,0,0,0,0,0,0,0,0,0,0,0,0,0,0,0,0,0,0,0,0,0,0,0,0,-2.2816,-2.2817,0,-2.2894,-2.2895,-2.2895,-2.2907,-2.2907,-2.2906,-2.2905,-2.2985,-2.2988,-2.2991,0,0,0,0,0,0,0,0,0,0,0,0,0,-2.268,-2.2682,-2.2816,-2.2817,-2.2818,-2.2894,-2.2895,-2.2896,-2.2907,-2.2906,-2.2906,-2.2905,-2.2984,-2.2987,-2.2991,0,0,0,0,0,0,0,0,0,0,0,0,0,-2.2746,-2.2683,-2.2816,-2.2833,-2.2835,-2.2893,-2.2895,-2.2896,-2.2908,-2.2906,-2.2905,-2.2904,-2.2983,-2.2987,-2.2991,-2.3038,0,0,-2.3004,-2.3006,0,0,0,0,0,0,0,0,-2.2742,-2.2751,-2.283,-2.2832,-2.2835,-2.289,-2.2876,-2.2944,-2.2908,-2.288,-2.2905,-2.2904,-2.2954,-2.2961,-2.2978,-2.3042,-2.3045,-2.3004,-2.3007,-2.3009,-2.301,0,0,0,0,0,0,0,-2.2738,-2.2748,-2.2847,-2.2831,-2.2834,-2.2837,-2.2845,-2.2889,-2.2922,-2.2882,-2.2883,-2.2892,-2.2955,-2.2974,-2.298,-2.3046,-2.3004,-2.3008,-2.301,-2.3012,-2.3153,-2.3155,0,0,0,0,0,0,-2.273,-2.2744,-2.2844,-2.2849,-2.2785,-2.284,-2.285,-2.2873,-2.2922,-2.2928,-2.2893,-2.2893,-2.2967,-2.2975,-2.2982,-2.304,-2.3009,-2.3013,-2.3015,-2.3152,-2.3154,-2.3155,0,0,0,0,0,0,-2.2727,-2.2739,-2.2841,-2.2797,-2.281,-2.2844,-2.287,-2.2875,-2.2893,-2.293,-2.2936,-2.2905,-2.2966,-2.2977,-2.3024,-2.3043,-2.3014,-2.3018,-2.3151,-2.3153,-2.3154,-2.3157,0,0,0,0,0,0,-2.2723,-2.2738,-2.2755,-2.2797,-2.2813,-2.2881,-2.2871,-2.2877,-2.29,-2.29,-2.2943,-2.2949,-2.2966,-2.3018,-2.3028,-2.3049,-2.3021,-2.3149,-2.3152,-2.3154,-2.3155,-2.3158,-2.3161,0,0,0,0,0,-2.2718,-2.2753,-2.2756,-2.2768,-2.2835,-2.2882,-2.2891,-2.291,-2.2902,-2.292,-2.2944,-2.2948,-2.304,-2.3023,-2.3034,-2.3056,-2.3148,-2.3151,-2.3154,-2.3153,-2.3158,-2.3161,0,0,0,0,0,0,-2.2712,-2.2759,-2.2763,-2.2812,-2.2843,-2.2884,-2.2908,-2.2914,-2.2948,-2.2947,-2.2969,-2.2979,-2.3025,-2.3046,-2.3026,-2.3104,-2.3093,-2.3099,-2.3089,-2.3093,-2.3096,-2.309,-2.3025,0,0,0,0,0,-2.2717,-2.2751,-2.279,-2.2829,-2.2845,-2.2874,-2.2895,-2.2907,-2.294,-2.2953,-2.2981,-2.3013,-2.3049,-2.3073,-2.3108,-2.3158,-2.3168,-2.3179,-2.3182,-2.3185,-2.3189,-2.3217,-2.3223,-2.3164,-2.3164,-2.3164,0,0,-2.2726,-2.2756,-2.2776,-2.2829,-2.2854,-2.289,-2.2885,-2.2922,-2.2948,-2.2959,-2.3006,-2.3027,-2.3065,-2.3114,-2.3137,-2.3132,-2.3207,-2.3188,-2.319,-2.3193,-2.3221,-2.3226,-2.3231,-2.3166,-2.3166,-2.3166,0,0,-2.2761,-2.2787,-2.2823,-2.2849,-2.2888,-2.2907,-2.2916,-2.2956,-2.2971,-2.3018,-2.3027,-2.3059,-2.3121,-2.3147,-2.3169,-2.3216,-2.322,-2.3227,-2.3242,-2.327,-2.3275,-2.3279,-2.3295,-2.3301,-2.3231,-2.3231,-2.3231,0,-2.2768,-2.2821,-2.2841,-2.2878,-2.2901,-2.2913,-2.295,-2.2974,-2.3023,-2.3039,-2.3033,-2.3112,-2.3138,-2.3193,-2.3205,-2.3222,-2.3233,-2.3221,-2.3272,-2.3277,-2.3281,-2.3297,-2.3303,-2.3231,-2.3231,-2.3231,-2.3231,0,-2.2828,-2.2864,-2.2889,-2.2935,-2.2962,-2.2998,-2.3024,-2.3049,-2.3059,-2.3079,-2.3127,-2.3159,-2.3201,-2.3216,-2.3226,-2.3273,-2.3269,-2.3268,-2.3257,-2.3287,-2.3302,-2.3308,-2.3232,-2.3232,-2.3232,-2.3231,0,0,-2.286,-2.2918,-2.2927,-2.2948,-2.2992,-2.3021,-2.3059,-2.31,-2.312,-2.3154,-2.3186,-2.3239,-2.3238,-2.3263,-2.3276,-2.33,-2.3335,-2.3296,-2.3297,-2.3302,-2.3389,-2.339,-2.3396,-2.3339,-2.334,-2.3341,-2.3386,0,-2.29,-2.2967,-2.2987,-2.3044,-2.3078,-2.309,-2.3123,-2.3154,-2.3174,-2.3206,-2.3229,-2.3266,-2.3262,-2.3277,-2.3301,-2.3326,-2.3353,-2.3323,-2.3369,-2.3371,-2.3359,-2.3404,-2.3405,-2.3445,-2.3392,-2.3393,-2.3394,0,-2.2956,-2.299,-2.305,-2.309,-2.3105,-2.3134,-2.3174,-2.3205,-2.3241,-2.3254,-2.3281,-2.3293,-2.3334,-2.3321,-2.3377,-2.3356,-2.3377,-2.3392,-2.3394,-2.3398,-2.3384,-2.341,-2.3459,-2.3464,-2.3404,-2.3403,-2.3402,0,-2.2973,-2.3035,-2.3078,-2.3096,-2.3144,-2.3165,-2.3186,-2.322,-2.3244,-2.3279,-2.3295,-2.3334,-2.3356,-2.3386,-2.3408,-2.3397,-2.3463,-2.3452,-2.3475,-2.3474,-2.3487,-2.3486,-2.3539,-2.3501,-2.3501,-2.3501,-2.3501,0,-2.3016,-2.3052,-2.3087,-2.3114,-2.3155,-2.3178,-2.3218,-2.3239,-2.327,-2.3302,-2.3316,-2.3345,-2.3373,-2.3407,-2.3424,-2.3468,-2.3478,-2.349,-2.3494,-2.3488,-2.3487,-2.3501,-2.3499,-2.3503,-2.3502,-2.3502,-2.3502,0,-2.3042,-2.3067,-2.3115,-2.3157,-2.3168,-2.3197,-2.3233,-2.326,-2.328,-2.332,-2.3331,-2.3364,-2.3404,-2.343,-2.3481,-2.3493,-2.3541,-2.3544,-2.3528,-2.353,-2.3551,-2.3549,-2.3616,-2.3626,-2.3581,-2.3582,-2.3582,0,-2.3067,-2.3095,-2.314,-2.3162,-2.3183,-2.3218,-2.3243,-2.3266,-2.3291,-2.3334,-2.3356,-2.3397,-2.3431,-2.3495,-2.3524,-2.3563,-2.3567,-2.3588,-2.3573,-2.3567,-2.3567,-2.3565,-2.3568,-2.359,-2.3591,-2.3591,-2.3591,0,-2.3109,-2.312,-2.3154,-2.3193,-2.3222,-2.3254,-2.3285,-2.3303,-2.3332,-2.336,-2.3401,-2.3427,-2.348,-2.352,-2.3562,-2.3585,-2.3593,-2.3596,-2.3603,-2.3597,-2.3587,-2.3592,-2.3535,-2.3594,-2.3594,-2.3593,-2.3593,-2.3593,-2.3135,-2.3161,-2.3196,-2.3234,-2.3261,-2.329,-2.3318,-2.3342,-2.3376,-2.3421,-2.3433,-2.3476,-2.3512,-2.3569,-2.3592,-2.3626,-2.3624,-2.3634,-2.3637,-2.3639,-2.3639,-2.3582,-2.3634,-2.3634,-2.3634,-2.3634,-2.3634,0,-2.3178,-2.3201,-2.3236,-2.328,-2.331,-2.3315,-2.3351,-2.3376,-2.3413,-2.3446,-2.3479,-2.3527,-2.3566,-2.3598,-2.3639,-2.3661,-2.3666,-2.3671,-2.3669,-2.3674,-2.3639,-2.3629,-2.3666,-2.3666,-2.3666,-2.3666,-2.3666,-2.3666,-2.3203,-2.3247,-2.3262,-2.3319,-2.3343,-2.3385,-2.3405,-2.3432,-2.3458,-2.351,-2.3543,-2.3564,-2.3597,-2.364,-2.3677,-2.3685,-2.37,-2.3704,-2.3713,-2.368,-2.3676,-2.3673,-2.3663,-2.3707,-2.3707,-2.3745,-2.3745,-2.3746]},{"header":{"parameterUnit":"m.s-1","parameterCategory":1,"la1":30.2991,"la2":30.254,"lo1":-89.0895,"lo2":-89.0444,"dy":0.0017,"dx":0.0017,"nx":28,"ny":28,"refTime":"2024-05-02T09:00:00:Z","depth":0,"parameterNumber":3,"parameterNumberName":"V-component_of_WINDS"},"data":[0,0,0,0,0,0,0,0,0,0,0,0,0,0,0,0,0,0,0,0,0,0,0,0,0,0,0,0,0,0,0,0,0,0,0,0,0,0,0,0,0,0,0,0,0,0,0,0,0,0,0,0,0,0,0,0,0,0,5.1044,5.1045,0,5.1109,5.1109,5.111,5.1049,5.1047,5.1045,5.1042,5.1104,5.1108,5.1112,0,0,0,0,0,0,0,0,0,0,0,0,0,5.0865,5.0869,5.1044,5.1045,5.1046,5.1108,5.1109,5.111,5.105,5.1047,5.1044,5.1041,5.1103,5.1108,5.1112,0,0,0,0,0,0,0,0,0,0,0,0,0,5.0937,5.087,5.1044,5.1023,5.1022,5.1108,5.1109,5.111,5.105,5.1047,5.1043,5.104,5.1102,5.1107,5.1113,5.1222,0,0,5.1131,5.1133,0,0,0,0,0,0,0,0,5.0933,5.0944,5.1026,5.1025,5.1024,5.1067,5.1069,5.1148,5.1051,5.104,5.1042,5.1038,5.1095,5.1101,5.1121,5.1225,5.1227,5.1131,5.1135,5.1137,5.1139,0,0,0,0,0,0,0,5.0928,5.0941,5.1069,5.1027,5.1026,5.1009,5.1016,5.1084,5.1087,5.104,5.1036,5.1045,5.1093,5.1115,5.1122,5.1228,5.1131,5.1136,5.114,5.1142,5.1424,5.1428,0,0,0,0,0,0,5.0926,5.0937,5.1067,5.1071,5.0969,5.1016,5.1023,5.1057,5.1086,5.1087,5.1048,5.1042,5.1107,5.1115,5.1124,5.1253,5.1137,5.1143,5.1146,5.142,5.1425,5.1429,0,0,0,0,0,0,5.0923,5.0938,5.1065,5.1003,5.1018,5.1023,5.1062,5.106,5.1082,5.1091,5.1091,5.107,5.1105,5.1115,5.1198,5.1254,5.1146,5.1151,5.1415,5.1421,5.1427,5.1512,0,0,0,0,0,0,5.0918,5.0938,5.098,5.1005,5.1022,5.114,5.1065,5.1064,5.1093,5.1085,5.1112,5.1113,5.1103,5.119,5.1204,5.126,5.1155,5.141,5.1418,5.1425,5.1504,5.152,5.1534,0,0,0,0,0,5.0912,5.1,5.0982,5.0998,5.1075,5.1143,5.1152,5.114,5.1097,5.1139,5.1145,5.1112,5.1246,5.1199,5.1214,5.1273,5.1407,5.1416,5.1424,5.1497,5.1517,5.1533,0,0,0,0,0,0,5.0981,5.1003,5.0983,5.1083,5.1112,5.1133,5.1185,5.1161,5.1201,5.1192,5.1173,5.118,5.1267,5.1278,5.1225,5.1379,5.1319,5.1331,5.1369,5.1388,5.1402,5.1398,5.116,0,0,0,0,0,5.1008,5.1062,5.1079,5.1165,5.1181,5.1181,5.121,5.1198,5.1226,5.1237,5.1249,5.1277,5.1325,5.1357,5.1402,5.1505,5.151,5.1553,5.1568,5.158,5.1591,5.1646,5.1666,5.1458,5.1458,5.1458,0,0,5.1064,5.1083,5.1118,5.1179,5.12,5.1256,5.1191,5.1253,5.1294,5.1246,5.1325,5.1335,5.1364,5.1458,5.15,5.147,5.165,5.1592,5.1601,5.1606,5.1658,5.1677,5.1695,5.1464,5.1463,5.1462,0,0,5.1194,5.1215,5.1289,5.1311,5.1344,5.1343,5.1361,5.1386,5.1391,5.1471,5.1436,5.1483,5.1567,5.1589,5.1612,5.1751,5.1722,5.1766,5.1843,5.1897,5.1914,5.1928,5.1978,5.1996,5.1777,5.1777,5.1777,0,5.126,5.1344,5.133,5.1395,5.1422,5.1383,5.1457,5.1479,5.1524,5.1544,5.151,5.1614,5.1631,5.1729,5.1763,5.1783,5.1802,5.1763,5.1913,5.1927,5.194,5.1987,5.2006,5.1782,5.1782,5.1781,5.1781,0,5.1422,5.1481,5.1537,5.1583,5.1617,5.1686,5.1681,5.1717,5.1702,5.1705,5.1785,5.1805,5.1853,5.1875,5.186,5.1971,5.1952,5.1916,5.1854,5.1965,5.2009,5.2027,5.179,5.1788,5.1786,5.1785,0,0,5.1598,5.1636,5.1657,5.1677,5.171,5.1755,5.1822,5.187,5.1901,5.1933,5.1988,5.206,5.2027,5.2052,5.204,5.2087,5.2196,5.2045,5.2046,5.2073,5.2319,5.2346,5.2367,5.2177,5.218,5.2183,5.2317,0,5.173,5.1848,5.1837,5.1949,5.2002,5.1966,5.2024,5.205,5.2054,5.2099,5.2103,5.2154,5.2107,5.2122,5.2168,5.2174,5.2246,5.2164,5.2227,5.223,5.2221,5.239,5.2419,5.2544,5.2334,5.2337,5.2339,0,5.19,5.194,5.2057,5.2082,5.2104,5.2157,5.22,5.2244,5.2272,5.2271,5.23,5.228,5.2346,5.2284,5.2374,5.2319,5.2344,5.2351,5.2355,5.236,5.2291,5.24,5.2584,5.2602,5.2366,5.2363,5.2361,0,5.2016,5.2099,5.218,5.2198,5.2229,5.2267,5.2282,5.2307,5.2336,5.2373,5.2392,5.2437,5.2461,5.2495,5.2486,5.2442,5.2579,5.2515,5.2579,5.258,5.261,5.2608,5.28,5.2626,5.2626,5.2626,5.2625,0,5.2165,5.2238,5.2233,5.2282,5.2363,5.2349,5.2429,5.2438,5.2461,5.2511,5.2481,5.2528,5.2514,5.256,5.2554,5.263,5.264,5.2641,5.2639,5.2644,5.2644,5.266,5.2652,5.2631,5.263,5.2629,5.2628,0,5.2309,5.2308,5.2394,5.2417,5.2424,5.2482,5.2501,5.2547,5.2549,5.2613,5.2627,5.263,5.2683,5.2678,5.2736,5.2732,5.2826,5.2813,5.2817,5.2814,5.2878,5.2872,5.3087,5.3115,5.2923,5.2925,5.2927,0,5.2404,5.2459,5.2488,5.252,5.2538,5.259,5.262,5.2608,5.2641,5.2678,5.2719,5.277,5.281,5.2896,5.2902,5.2947,5.2935,5.3007,5.2941,5.2945,5.2936,5.2933,5.2938,5.302,5.3022,5.3024,5.3025,0,5.2572,5.2569,5.2615,5.2661,5.2698,5.2734,5.2765,5.2793,5.2784,5.2822,5.2877,5.2908,5.2969,5.3019,5.3062,5.3075,5.3049,5.3046,5.3063,5.3069,5.307,5.307,5.2852,5.3041,5.304,5.3038,5.3038,5.3037,5.2694,5.2742,5.277,5.2822,5.2845,5.2876,5.292,5.2928,5.2974,5.3023,5.3013,5.3075,5.31,5.3155,5.3173,5.322,5.3194,5.3218,5.3225,5.3231,5.3239,5.3062,5.3227,5.3227,5.3227,5.3226,5.3226,0,5.2861,5.2878,5.2925,5.2972,5.3012,5.2985,5.3019,5.3055,5.3109,5.3136,5.3177,5.3239,5.3288,5.3298,5.3344,5.338,5.3369,5.3392,5.339,5.3393,5.3259,5.324,5.34,5.34,5.34,5.34,5.34,5.34,5.2953,5.3032,5.3033,5.3123,5.3138,5.3199,5.322,5.3248,5.327,5.3341,5.3382,5.3389,5.3409,5.3457,5.35,5.3501,5.352,5.3548,5.3545,5.342,5.3402,5.3386,5.3368,5.3552,5.3552,5.3675,5.3676,5.3677]}]]